�N����,����,�~����,�C��,���x,�C��,����,���ϕ���,�ő�u�ԕ���,�ő厞����,���˗�,�I�_���x,�n�����x,�ő啗���N��,DTYPE
"21/12/06","00:10",0.0,4.2,90.2,1023.2,319.8,3.7,5.4,333.5,0.00,2.8,9.1,"00:08:48",1
"21/12/06","00:20",0.0,4.4,90.0,1023.2,321.6,4.1,6.2,312.6,0.00,2.9,9.1,"00:11:36",1
"21/12/06","00:30",0.0,4.4,89.9,1023.4,334.9,4.0,7.7,324.3,0.00,2.9,9.0,"00:22:48",1
"21/12/06","00:40",0.0,4.5,89.7,1023.4,327.8,3.4,5.8,332.7,0.00,3.0,9.1,"00:39:44",1
"21/12/06","00:50",0.0,4.6,89.6,1023.4,324.1,4.2,6.7,332.4,0.00,3.1,9.2,"00:47:52",1
"21/12/06","01:00",0.0,4.7,89.3,1023.4,325.5,3.9,6.7,345.5,0.00,3.1,9.1,"00:56:24",1
"21/12/06","01:10",0.0,4.7,89.1,1023.7,329.0,3.7,5.9,336.1,0.00,3.1,8.9,"01:06:56",1
"21/12/06","01:20",0.0,4.7,88.9,1023.7,321.9,3.7,5.9,318.5,0.00,3.1,9.1,"01:16:08",1
"21/12/06","01:30",0.0,4.7,88.7,1023.4,321.8,3.9,5.8,311.1,0.00,3.0,8.9,"01:28:48",1
"21/12/06","01:40",0.0,4.7,88.7,1023.7,327.1,3.7,6.0,320.9,0.00,3.0,8.8,"01:30:24",1
"21/12/06","01:50",0.0,4.8,88.6,1023.4,327.4,3.0,5.5,342.3,0.00,3.1,9.0,"01:40:56",1
"21/12/06","02:00",0.0,4.9,88.5,1023.4,307.4,2.5,4.3,314.5,0.00,3.2,8.9,"01:56:00",1
"21/12/06","02:10",0.0,4.9,88.4,1023.2,303.6,2.6,3.9,307.7,0.00,3.2,9.1,"02:01:52",1
"21/12/06","02:20",0.0,5.0,88.3,1023.2,298.6,2.3,3.9,320.4,0.00,3.3,9.1,"02:19:20",1
"21/12/06","02:30",0.0,5.0,88.2,1023.4,314.6,3.0,4.5,330.5,0.00,3.3,9.1,"02:20:32",1
"21/12/06","02:40",0.0,5.0,88.1,1023.4,306.3,2.6,4.5,315.4,0.00,3.2,8.9,"02:30:16",1
"21/12/06","02:50",0.0,5.1,88.0,1023.4,309.6,2.6,4.7,327.4,0.00,3.3,8.9,"02:49:12",1
"21/12/06","03:00",0.0,5.2,87.9,1023.0,312.0,2.3,3.9,318.3,0.00,3.4,9.0,"02:52:40",1
"21/12/06","03:10",0.0,5.3,87.9,1023.0,284.5,1.7,2.2,258.3,0.00,3.5,9.0,"03:04:16",1
"21/12/06","03:20",0.0,5.2,87.9,1023.0,286.1,1.7,2.6,315.6,0.00,3.4,9.0,"03:17:28",1
"21/12/06","03:30",0.0,5.3,87.9,1023.0,287.7,1.5,2.5,329.0,0.00,3.5,9.0,"03:20:02",1
"21/12/06","03:40",0.0,5.3,87.9,1023.0,307.2,2.0,3.5,313.4,0.00,3.5,8.9,"03:32:40",1
"21/12/06","03:50",0.0,5.4,88.0,1022.7,280.1,1.6,2.1,261.3,0.00,3.6,9.0,"03:49:44",1
"21/12/06","04:00",0.0,5.3,88.2,1023.0,277.0,1.5,2.6,261.1,0.00,3.5,9.0,"03:53:04",1
"21/12/06","04:10",0.0,5.4,88.5,1023.0,293.1,1.8,2.7,308.3,0.00,3.7,9.0,"04:03:44",1
"21/12/06","04:20",0.0,5.4,88.9,1023.0,310.8,2.8,4.9,318.2,0.00,3.8,8.9,"04:12:32",1
"21/12/06","04:30",0.0,5.3,89.3,1022.7,282.1,1.7,2.4,298.6,0.00,3.7,9.1,"04:20:56",1
"21/12/06","04:40",0.0,5.3,89.8,1022.3,284.1,1.7,3.1,309.3,0.00,3.8,9.1,"04:32:16",1
"21/12/06","04:50",0.0,5.3,90.2,1022.5,295.5,2.2,3.5,297.2,0.00,3.9,9.2,"04:44:00",1
"21/12/06","05:00",0.0,5.4,90.6,1022.0,293.5,2.0,3.6,321.1,0.00,4.0,9.0,"04:58:16",1
"21/12/06","05:10",0.0,5.5,90.9,1022.3,307.1,1.7,2.4,314.0,0.00,4.2,9.1,"05:09:12",1
"21/12/06","05:20",0.0,5.4,91.2,1022.3,306.7,1.5,2.2,317.7,0.00,4.1,9.1,"05:11:28",1
"21/12/06","05:30",0.0,5.5,91.4,1022.0,307.1,1.8,2.6,321.1,0.00,4.3,9.0,"05:23:20",1
"21/12/06","05:40",0.0,5.4,91.7,1022.0,309.9,2.8,4.5,329.9,0.00,4.2,9.1,"05:33:20",1
"21/12/06","05:50",0.0,5.6,91.8,1021.8,297.2,2.2,3.5,323.3,0.00,4.4,8.8,"05:45:20",1
"21/12/06","06:00",0.0,5.6,91.8,1022.0,271.4,1.8,2.6,290.3,0.00,4.4,9.1,"05:51:52",1
"21/12/06","06:10",0.0,5.3,91.7,1022.5,267.1,2.2,3.9,267.5,0.00,4.1,9.1,"06:05:52",1
"21/12/06","06:20",0.0,5.3,91.7,1022.0,274.1,2.1,3.2,272.3,0.00,4.1,9.1,"06:16:56",1
"21/12/06","06:30",0.0,5.4,91.7,1022.3,283.6,1.7,2.4,276.3,0.00,4.2,9.2,"06:21:12",1
"21/12/06","06:40",0.0,5.4,91.6,1022.5,276.8,1.8,2.7,255.8,0.00,4.2,8.9,"06:34:40",1
"21/12/06","06:50",0.0,5.4,91.5,1022.5,281.6,1.7,2.2,266.2,0.00,4.2,9.0,"06:41:44",1
"21/12/06","07:00",0.0,5.5,91.5,1022.7,276.7,1.7,2.5,270.4,0.00,4.3,9.0,"06:55:20",1
"21/12/06","07:10",0.0,5.6,91.4,1022.7,273.0,1.3,2.0,255.8,0.00,4.4,9.1,"07:08:40",1
"21/12/06","07:20",0.0,5.6,91.2,1022.7,270.9,1.7,2.7,251.1,0.00,4.3,8.8,"07:16:24",1
"21/12/06","07:30",0.0,5.7,91.2,1023.0,291.0,1.8,3.3,313.1,0.00,4.4,9.1,"07:25:28",1
"21/12/06","07:40",0.0,5.9,91.1,1022.5,297.6,1.8,2.7,314.9,0.00,4.6,8.9,"07:38:32",1
"21/12/06","07:50",0.0,6.1,91.1,1022.3,281.0,1.2,2.7,312.2,0.00,4.8,9.0,"07:40:32",1
"21/12/06","08:00",0.0,5.9,91.0,1022.7,262.7,2.1,2.7,252.9,0.00,4.6,9.0,"07:52:56",1
"21/12/06","08:10",0.0,6.0,90.9,1023.0,265.3,2.0,2.6,265.6,0.00,4.7,9.1,"08:06:48",1
"21/12/06","08:20",0.0,6.1,90.8,1022.5,273.2,2.0,2.9,276.0,0.00,4.8,8.9,"08:15:28",1
"21/12/06","08:30",0.0,6.4,90.7,1022.5,303.6,2.0,2.6,320.3,0.00,5.0,9.2,"08:23:52",1
"21/12/06","08:40",0.0,6.7,90.6,1023.0,306.4,2.1,3.4,331.9,0.01,5.3,9.0,"08:37:52",1
"21/12/06","08:50",0.0,6.8,90.4,1023.2,306.5,2.5,4.3,312.6,0.02,5.4,9.2,"08:43:52",1
"21/12/06","09:00",0.0,6.7,90.2,1023.2,309.5,2.6,4.3,320.3,0.02,5.2,9.1,"08:54:56",1
"21/12/06","09:10",0.0,6.8,89.8,1023.2,295.1,2.1,3.5,311.5,0.00,5.3,9.2,"09:00:02",1
"21/12/06","09:20",0.0,6.9,89.5,1023.2,312.2,3.0,4.2,320.2,0.02,5.3,9.1,"09:11:36",1
"21/12/06","09:30",0.0,7.3,89.1,1023.7,302.5,2.3,3.4,319.9,0.06,5.7,9.2,"09:25:36",1
"21/12/06","09:40",0.0,7.7,88.6,1023.2,285.0,2.0,2.9,309.7,0.10,6.0,9.2,"09:37:28",1
"21/12/06","09:50",0.0,8.2,87.8,1023.4,275.0,2.0,2.8,251.6,0.15,6.3,9.2,"09:47:28",1
"21/12/06","10:00",0.0,8.3,86.9,1023.7,248.7,1.6,2.7,248.3,0.10,6.3,9.3,"09:52:48",1
"21/12/06","10:10",0.0,8.3,86.7,1023.7,259.3,1.1,2.1,244.6,0.07,6.3,9.3,"10:01:20",1
"21/12/06","10:20",0.0,8.6,86.4,1023.7,275.9,0.6,1.1,299.4,0.09,6.5,9.4,"10:14:16",1
"21/12/06","10:30",0.0,8.7,86.1,1023.9,295.2,1.0,1.9,318.7,0.06,6.5,9.4,"10:26:40",1
"21/12/06","10:40",0.0,8.9,85.9,1023.9,305.2,1.6,2.5,311.6,0.08,6.7,9.4,"10:35:36",1
"21/12/06","10:50",0.0,9.4,85.5,1023.4,255.9,0.6,1.1,285.3,0.15,7.1,9.5,"10:46:56",1
"21/12/06","11:00",0.0,9.6,85.0,1023.9,322.7,0.5,1.3,290.6,0.16,7.2,9.4,"10:50:02",1
"21/12/06","11:10",0.0,9.7,84.6,1023.7,275.9,1.1,1.6,256.2,0.08,7.3,9.4,"11:04:48",1
"21/12/06","11:20",0.0,10.0,84.3,1023.4,295.6,0.8,1.4,296.9,0.14,7.5,9.3,"11:11:04",1
"21/12/06","11:30",0.0,10.1,84.0,1023.2,287.0,0.5,1.6,326.8,0.11,7.6,9.4,"11:26:00",1
"21/12/06","11:40",0.0,10.9,84.4,1023.0,318.7,0.5,1.3,296.5,0.30,8.4,9.5,"11:38:40",1
"21/12/06","11:50",0.0,11.8,82.8,1022.5,298.5,1.2,2.5,340.3,0.45,9.0,9.8,"11:47:04",1
"21/12/06","12:00",0.0,12.6,80.3,1022.3,293.7,0.8,2.2,299.5,0.41,9.3,9.5,"11:51:44",1
"21/12/06","12:10",0.0,13.4,79.1,1022.3,225.1,1.0,2.0,122.4,0.43,9.9,10.0,"12:09:36",1
"21/12/06","12:20",0.0,13.6,77.0,1022.0,206.5,1.3,2.7,208.5,0.41,9.7,9.9,"12:14:00",1
"21/12/06","12:30",0.0,13.2,75.5,1022.0,212.2,1.5,2.8,244.6,0.31,9.0,9.7,"12:26:24",1
"21/12/06","12:40",0.0,12.9,76.1,1022.0,218.6,1.5,3.1,237.8,0.18,8.8,10.0,"12:39:20",1
"21/12/06","12:50",0.0,13.1,77.6,1021.3,233.0,1.6,3.2,242.9,0.27,9.3,10.1,"12:43:52",1
"21/12/06","13:00",0.0,14.1,76.7,1021.1,228.6,1.3,2.6,230.5,0.39,10.1,10.2,"12:58:08",1
"21/12/06","13:10",0.0,14.2,75.3,1021.5,259.6,1.1,2.4,220.1,0.24,9.9,10.1,"13:08:00",1
"21/12/06","13:20",0.0,14.2,75.4,1020.8,231.2,0.7,1.8,233.0,0.19,10.0,10.3,"13:15:20",1
"21/12/06","13:30",0.0,14.3,75.4,1020.6,247.2,0.6,1.2,328.6,0.15,10.1,10.3,"13:21:28",1
"21/12/06","13:40",0.0,15.2,76.0,1020.8,231.5,0.8,2.1,240.4,0.41,11.0,10.4,"13:35:44",1
"21/12/06","13:50",0.0,15.5,73.9,1020.4,112.9,1.0,2.2,113.1,0.45,10.9,10.3,"13:43:20",1
"21/12/06","14:00",0.0,14.8,73.3,1019.9,151.0,1.0,2.7,141.8,0.16,10.1,10.5,"13:55:52",1
"21/12/06","14:10",0.0,14.3,74.9,1020.4,201.3,1.2,2.7,211.3,0.11,10.0,10.6,"14:06:32",1
"21/12/06","14:20",0.0,14.4,76.0,1020.1,202.9,0.6,1.6,165.5,0.13,10.3,10.8,"14:14:24",1
"21/12/06","14:30",0.0,14.4,76.1,1020.1,158.5,0.8,1.7,187.0,0.13,10.3,10.6,"14:23:36",1
"21/12/06","14:40",0.0,14.4,76.1,1020.1,194.1,0.7,2.0,212.3,0.12,10.3,10.8,"14:35:44",1
"21/12/06","14:50",0.0,14.7,76.6,1020.1,210.9,0.8,2.1,120.3,0.17,10.7,10.9,"14:47:52",1
"21/12/06","15:00",0.0,14.4,76.4,1019.9,164.9,1.0,2.4,145.1,0.10,10.3,10.9,"14:50:48",1
"21/12/06","15:10",0.0,14.2,77.5,1019.9,141.4,0.8,2.0,111.5,0.09,10.4,11.1,"15:07:28",1
"21/12/06","15:20",0.0,14.1,78.1,1020.4,184.0,0.7,1.9,92.3,0.08,10.4,11.1,"15:16:08",1
"21/12/06","15:30",0.0,14.0,78.5,1020.1,171.8,0.8,2.0,121.7,0.05,10.4,11.0,"15:26:24",1
"21/12/06","15:40",0.0,13.9,79.0,1019.7,220.9,0.6,1.9,147.6,0.04,10.4,11.0,"15:32:56",1
"21/12/06","15:50",0.0,13.8,79.4,1019.9,221.7,0.6,1.4,107.0,0.04,10.3,11.0,"15:45:04",1
"21/12/06","16:00",0.0,13.8,79.9,1019.7,200.6,0.6,1.3,91.7,0.05,10.4,11.1,"15:57:36",1
"21/12/06","16:10",0.0,13.8,80.1,1019.7,202.0,0.5,1.0,91.6,0.04,10.5,11.2,"16:00:16",1
"21/12/06","16:20",0.0,13.6,80.5,1020.1,216.6,0.5,1.1,103.3,0.02,10.4,11.2,"16:14:32",1
"21/12/06","16:30",0.0,13.5,81.1,1019.9,237.0,0.5,1.1,184.2,0.01,10.4,11.4,"16:29:12",1
"21/12/06","16:40",0.0,13.4,81.5,1019.9,247.4,0.5,1.0,254.1,0.00,10.3,11.2,"16:34:08",1
"21/12/06","16:50",0.0,13.4,81.7,1020.1,248.5,0.5,1.0,272.9,0.00,10.4,11.2,"16:47:16",1
"21/12/06","17:00",0.0,13.2,82.0,1019.7,262.3,0.3,0.6,260.9,0.00,10.2,11.4,"16:51:28",1
"21/12/06","17:10",0.0,13.1,82.2,1019.4,285.1,0.3,1.3,323.0,0.00,10.2,11.3,"17:00:02",1
"21/12/06","17:20",0.0,13.0,82.6,1019.9,328.4,1.0,1.6,342.3,0.00,10.2,11.2,"17:14:52",1
"21/12/06","17:30",0.0,12.6,83.2,1019.4,315.5,1.2,1.7,315.1,0.00,9.9,11.3,"17:24:04",1
"21/12/06","17:40",0.0,12.3,84.0,1019.9,286.2,1.1,1.4,310.6,0.00,9.7,11.4,"17:30:10",1
"21/12/06","17:50",0.0,12.2,84.7,1019.7,303.9,1.3,1.8,318.8,0.00,9.7,11.2,"17:46:08",1
"21/12/06","18:00",0.0,11.9,85.3,1019.4,327.2,1.3,1.9,334.3,0.00,9.6,11.3,"17:53:56",1
"21/12/06","18:10",0.0,11.7,85.9,1019.4,322.6,1.3,1.6,320.2,0.00,9.5,11.3,"18:06:58",1
"21/12/06","18:20",0.0,11.4,86.4,1019.4,318.7,1.3,1.6,319.4,0.00,9.3,11.3,"18:10:18",1
"21/12/06","18:30",0.0,10.9,86.9,1019.9,311.8,1.2,1.7,318.8,0.00,8.8,11.3,"18:25:36",1
"21/12/06","18:40",0.0,10.6,87.4,1019.7,305.0,1.3,1.7,309.0,0.00,8.6,11.4,"18:38:40",1
"21/12/06","18:50",0.0,10.3,87.9,1019.9,309.0,1.5,1.7,307.5,0.00,8.4,11.4,"18:40:08",1
"21/12/06","19:00",0.0,10.3,88.5,1019.4,295.8,1.3,1.4,317.1,0.00,8.5,11.4,"18:50:08",1
"21/12/06","19:10",0.0,10.4,88.9,1019.2,298.0,1.5,1.8,316.1,0.00,8.7,11.4,"19:04:48",1
"21/12/06","19:20",0.0,10.6,89.5,1019.4,312.0,0.8,1.7,321.6,0.00,9.0,11.3,"19:12:00",1
"21/12/06","19:30",0.0,10.7,89.9,1019.4,306.4,1.3,2.2,323.6,0.00,9.2,11.1,"19:28:08",1
"21/12/06","19:40",0.0,11.0,90.3,1019.9,318.6,1.6,2.0,319.2,0.00,9.5,11.2,"19:33:30",1
"21/12/06","19:50",0.0,11.1,90.7,1019.4,36.4,0.7,1.6,308.2,0.00,9.7,11.3,"19:40:08",1
"21/12/06","20:00",0.0,11.0,91.0,1019.7,339.0,0.3,0.9,88.7,0.00,9.6,11.2,"19:51:20",1
"21/12/06","20:10",0.0,11.0,91.3,1019.4,290.8,1.1,1.7,303.7,0.00,9.7,11.3,"20:07:58",1
"21/12/06","20:20",0.0,11.0,91.6,1019.4,287.9,1.2,1.4,315.0,0.00,9.7,11.1,"20:10:08",1
"21/12/06","20:30",0.0,11.0,91.8,1019.7,287.8,0.8,1.2,294.0,0.00,9.8,11.1,"20:20:02",1
"21/12/06","20:40",0.0,11.1,92.0,1019.7,315.0,1.6,2.0,318.1,0.00,9.9,11.1,"20:36:28",1
"21/12/06","20:50",0.0,11.1,92.2,1019.7,296.2,1.2,1.6,319.3,0.00,9.9,11.2,"20:42:48",1
"21/12/06","21:00",0.0,11.2,92.3,1019.4,305.3,1.5,1.7,320.8,0.00,10.0,11.1,"20:53:28",1
"21/12/06","21:10",0.0,11.2,92.5,1019.2,319.6,1.2,1.8,327.1,0.00,10.1,11.3,"21:02:42",1
"21/12/06","21:20",0.0,11.2,92.6,1019.7,310.5,1.3,1.8,322.8,0.00,10.1,11.2,"21:15:36",1
"21/12/06","21:30",0.0,11.2,92.8,1019.0,309.3,1.3,1.9,332.8,0.00,10.1,11.2,"21:26:56",1
"21/12/06","21:40",0.0,11.2,92.8,1019.2,301.1,0.7,1.3,315.1,0.00,10.1,11.0,"21:39:48",1
"21/12/06","21:50",0.0,11.2,92.9,1019.0,320.6,0.7,1.6,306.1,0.00,10.1,11.2,"21:40:16",1
"21/12/06","22:00",0.0,11.1,93.0,1019.0,304.7,1.1,1.4,311.3,0.00,10.1,11.2,"21:50:16",1
"21/12/06","22:10",0.0,11.1,93.1,1019.0,306.0,0.8,1.4,307.5,0.00,10.1,11.2,"22:01:20",1
"21/12/06","22:20",0.0,11.0,93.3,1019.0,278.8,0.5,1.1,302.5,0.00,10.0,11.2,"22:19:46",1
"21/12/06","22:30",0.0,11.0,93.4,1019.0,318.2,1.3,2.1,315.5,0.00,10.0,11.1,"22:28:18",1
"21/12/06","22:40",0.0,11.0,93.5,1018.7,325.0,0.8,1.8,316.7,0.00,10.0,11.2,"22:37:40",1
"21/12/06","22:50",0.0,11.0,93.6,1018.5,296.9,0.8,1.3,320.3,0.00,10.0,11.1,"22:40:08",1
"21/12/06","23:00",0.0,11.0,93.7,1018.7,298.2,1.2,1.6,296.3,0.00,10.1,11.0,"22:59:30",1
"21/12/06","23:10",0.0,11.2,93.8,1018.7,313.0,2.0,3.1,342.9,0.00,10.3,11.0,"23:07:12",1
"21/12/06","23:20",0.0,11.4,93.8,1018.7,314.6,2.2,3.3,325.0,0.00,10.5,11.2,"23:11:28",1
"21/12/06","23:30",0.0,11.5,93.8,1018.5,291.1,1.1,1.8,316.2,0.00,10.6,11.3,"23:20:16",1
"21/12/06","23:40",0.0,11.5,93.8,1018.0,285.2,1.1,1.4,314.7,0.00,10.6,11.2,"23:32:50",1
"21/12/06","23:50",0.0,11.5,93.8,1018.0,281.0,1.6,2.5,313.6,0.00,10.6,11.1,"23:48:48",1
"21/12/06","24:00",0.0,11.4,93.9,1017.8,320.4,2.2,3.7,336.7,0.00,10.5,11.2,"23:59:34",1
